Date String (YYYY-MM-DD hh:mm:ss) UTC,Instrument flags,Ambient pressure (hPa),Sample flow (lpm),Bypass flow (lpm),Sample temperature (°C),Ambient temperature (°C),ASC tube jacket temperature (°C),LED temperature (°C),Box temperature (°C),Sample RH (%),Span deviation,Mass concentration (μg/m³),Mass concentration (μg/m³),Mass concentration (μg/m³)
DateTimeUTC,F1_M11,P_M11,Q1_M11,Q2_M11,T1_M11,T2_M11,T3_M11,T4_M11,T5_M11,U1_M11,ZSPAN_M11,X2_M11,X0_M11,X1_M11
2022-01-02 01:00:00,,0822.7,4.99,0.00,21.5,20.7,00.0,30.9,23.0,06.0,0000.0,0000.08,0000.92,0000.00
2022-01-02 01:01:00,,0822.7,5.01,0.00,21.7,21.6,00.0,30.9,23.3,05.9,0000.0,0000.07,0000.90,0000.01
2022-01-02 01:02:00,,0822.6,4.99,0.00,21.8,22.4,00.0,31.0,23.6,05.8,0000.0,0000.07,0000.92,0000.01
2022-01-02 01:03:00,,0822.7,5.01,0.00,22.0,22.9,00.0,31.0,23.9,05.9,0000.0,0000.06,0000.87,0000.01
2022-01-02 01:04:00,,0822.6,5.00,0.00,22.0,22.4,00.0,31.0,23.7,06.0,0000.0,0000.06,0000.89,0000.00
2022-01-02 01:05:00,,0822.7,5.00,0.00,21.8,21.9,00.0,31.0,23.4,06.0,0000.0,0000.05,0000.34,0000.00
2022-01-02 01:06:00,,0822.6,4.99,0.00,21.7,21.4,00.0,30.9,23.1,06.0,0000.0,0000.07,0000.26,0000.00
2022-01-02 01:07:00,,0822.7,5.00,0.00,21.5,20.9,00.0,30.9,22.8,06.0,0000.0,0000.08,0000.30,0000.01
2022-01-02 01:08:00,,0822.6,5.00,0.00,21.4,20.5,00.0,30.8,22.6,06.0,0000.0,0000.08,0000.31,0000.01
2022-01-02 01:09:00,,0822.7,5.00,0.00,21.3,20.6,00.0,30.8,22.7,06.0,0000.0,0000.09,0000.44,0000.02
2022-01-02 01:10:00,,0822.7,5.00,0.00,21.5,21.5,00.0,30.8,23.0,06.0,0000.0,0000.10,0000.49,0000.02
2022-01-02 01:11:00,,0822.7,5.00,0.00,21.6,22.3,00.0,30.8,23.4,06.0,0000.0,0000.12,0000.59,0000.02
2022-01-02 01:12:00,,0822.7,5.01,0.00,21.8,22.7,00.0,30.9,23.6,06.0,0000.0,0000.13,0000.62,0000.02
2022-01-02 01:13:00,,0822.7,4.99,0.00,21.8,22.3,00.0,30.9,23.5,06.0,0000.0,0000.12,0000.81,0000.02
2022-01-02 01:14:00,,0822.7,5.00,0.00,21.7,21.8,00.0,30.8,23.3,06.0,0000.0,0000.12,0000.82,0000.02
2022-01-02 01:15:00,,0822.7,5.01,0.00,21.7,21.4,00.0,30.8,23.1,06.0,0000.0,0000.11,0000.80,0000.02
2022-01-02 01:16:00,,0822.8,5.00,0.00,21.6,21.0,00.0,30.8,23.0,06.0,0000.0,0000.12,0000.80,0000.02
2022-01-02 01:17:00,,0822.8,5.01,0.00,21.5,20.6,00.0,30.8,22.8,06.1,0000.0,0000.10,0000.71,0000.02
2022-01-02 01:18:00,,0822.8,4.98,0.00,21.4,20.3,00.0,30.7,22.7,06.2,0000.0,0000.12,0001.54,0000.02
2022-01-02 01:19:00,,0822.8,5.01,0.00,21.4,20.9,00.0,30.7,22.8,06.2,0000.0,0000.17,0001.86,0000.02
2022-01-02 01:20:00,,0822.8,4.99,0.00,21.5,21.8,00.0,30.7,23.2,06.1,0000.0,0000.20,0001.85,0000.02
2022-01-02 01:21:00,,0822.8,4.99,0.00,21.7,22.6,00.0,30.8,23.5,06.0,0000.0,0000.19,0001.83,0000.02
2022-01-02 01:22:00,,0822.8,5.01,0.00,21.8,22.8,00.0,30.8,23.7,06.0,0000.0,0000.19,0001.76,0000.02
2022-01-02 01:23:00,,0822.8,5.00,0.00,21.8,22.3,00.0,30.8,23.6,06.0,0000.0,0000.18,0001.74,0000.02
2022-01-02 01:24:00,,0822.8,4.99,0.00,21.8,21.9,00.0,30.8,23.4,05.9,0000.0,0000.18,0002.91,0000.02
2022-01-02 01:25:00,,0822.8,5.01,0.00,21.7,21.5,00.0,30.8,23.3,06.0,0000.0,0000.19,0003.35,0000.03
2022-01-02 01:26:00,,0822.8,5.00,0.00,21.7,21.3,00.0,30.8,23.3,05.9,0000.0,0000.19,0003.35,0000.03
2022-01-02 01:27:00,,0822.8,5.00,0.00,21.7,21.2,00.0,30.8,23.2,06.0,0000.0,0000.20,0003.49,0000.03
2022-01-02 01:28:00,,0822.8,4.98,0.00,21.6,21.1,00.0,30.8,23.2,06.0,0000.0,0000.21,0003.51,0000.03
2022-01-02 01:29:00,,0822.8,5.02,0.00,21.6,21.0,00.0,30.7,23.1,06.1,0000.0,0000.18,0002.79,0000.02
2022-01-02 01:30:00,,0822.8,4.99,0.00,21.6,20.8,00.0,30.7,23.1,06.1,0000.0,0000.15,0003.21,0000.02
2022-01-02 01:31:00,,0822.8,5.00,0.00,21.5,20.7,00.0,30.7,23.0,06.2,0000.0,0000.12,0003.18,0000.01
2022-01-02 01:32:00,,0822.8,5.01,0.00,21.6,21.3,00.0,30.7,23.2,06.2,0000.0,0000.14,0003.18,0000.01
2022-01-02 01:33:00,,0822.9,4.99,0.00,21.7,22.2,00.0,30.7,23.5,06.2,0000.0,0000.13,0003.16,0000.01
2022-01-02 01:34:00,,0823.0,5.01,0.00,21.9,23.0,00.0,30.8,23.8,06.1,0000.0,0000.12,0003.14,0000.01
2022-01-02 01:35:00,,0823.0,4.99,0.00,22.0,23.0,00.0,30.8,24.0,05.9,0000.0,0000.14,0002.00,0000.01
2022-01-02 01:36:00,,0823.0,5.01,0.00,22.1,22.7,00.0,30.9,23.9,04.9,0000.0,0000.16,0001.41,0000.01
2022-01-02 01:37:00,,0822.9,5.01,0.00,22.0,22.4,00.0,30.9,23.8,04.6,0000.0,0000.16,0001.40,0000.01
2022-01-02 01:38:00,,0822.9,4.99,0.00,22.0,22.1,00.0,30.9,23.7,04.6,0000.0,0000.15,0001.29,0000.01
2022-01-02 01:39:00,,0822.9,5.00,0.00,22.0,21.9,00.0,30.9,23.6,04.7,0000.0,0000.15,0001.25,0000.01
2022-01-02 01:40:00,,0822.9,4.99,0.00,21.9,21.7,00.0,30.9,23.5,04.7,0000.0,0000.15,0001.14,0000.01
2022-01-02 01:41:00,,0822.9,4.99,0.00,21.9,21.5,00.0,30.9,23.4,04.7,0000.0,0000.12,0000.32,0000.01
2022-01-02 01:42:00,,0822.8,5.00,0.00,21.8,21.3,00.0,30.9,23.3,04.7,0000.0,0000.11,0000.20,0000.01
2022-01-02 01:43:00,,0822.8,5.00,0.00,21.8,21.2,00.0,30.9,23.3,04.5,0000.0,0000.08,0000.17,0000.01
2022-01-02 01:44:00,,0822.8,5.02,0.00,21.7,21.0,00.0,30.9,23.2,04.7,0000.0,0000.08,0000.17,0000.02
2022-01-02 01:45:00,,0822.8,5.00,0.00,21.7,21.3,00.0,30.9,23.3,04.8,0000.0,0000.08,0000.19,0000.02
2022-01-02 01:46:00,,0822.8,5.00,0.00,21.9,22.1,00.0,30.9,23.6,04.7,0000.0,0000.08,0000.20,0000.01
2022-01-02 01:47:00,,0822.9,4.99,0.00,22.0,22.8,00.0,30.9,23.9,04.6,0000.0,0000.07,0000.17,0000.01
2022-01-02 01:48:00,,0822.9,5.01,0.00,22.2,23.1,00.0,31.0,24.1,04.5,0000.0,0000.07,0000.17,0000.01
2022-01-02 01:49:00,,0823.0,5.01,0.00,22.2,22.8,00.0,31.0,24.0,04.5,0000.0,0000.06,0000.17,0000.01
2022-01-02 01:50:00,,0823.0,5.00,0.00,22.2,22.4,00.0,31.0,23.9,04.6,0000.0,0000.06,0000.23,0000.01
2022-01-02 01:51:00,,0823.0,4.99,0.00,22.1,22.1,00.0,31.0,23.8,04.6,0000.0,0000.06,0000.23,0000.01
2022-01-02 01:52:00,,0823.0,5.00,0.00,22.1,21.9,00.0,31.0,23.7,04.6,0000.0,0000.06,0000.23,0000.01
2022-01-02 01:53:00,,0823.0,5.00,0.00,22.0,21.7,00.0,31.0,23.6,04.6,0000.0,0000.06,0000.23,0000.01
2022-01-02 01:54:00,,0823.0,5.00,0.00,22.0,21.5,00.0,31.0,23.5,04.5,0000.0,0000.06,0000.26,0000.01
2022-01-02 01:55:00,,0822.9,5.01,0.00,21.9,21.3,00.0,31.0,23.4,04.4,0000.0,0000.09,0000.38,0000.01
2022-01-02 01:56:00,,0823.0,5.00,0.00,21.9,21.1,00.0,31.0,23.3,04.4,0000.0,0000.09,0000.36,0000.01
2022-01-02 01:57:00,,0823.0,4.99,0.00,21.8,21.2,00.0,31.0,23.4,04.3,0000.0,0000.07,0000.37,0000.01
2022-01-02 01:58:00,,0822.9,5.01,0.00,21.9,21.9,00.0,31.0,23.6,04.2,0000.0,0000.08,0002.12,0000.01
2022-01-02 01:59:00,,0822.9,4.99,0.00,22.1,22.7,00.0,31.0,23.9,04.0,0000.0,0000.09,0002.51,0000.01
